Weather History for Emmonak, AK

Change the Weather History Date:

Tuesday, February 12, 2013

  Actual Average Record
Temperature  
Mean Temperature 10 °F -  
Max Temperature 23 °F 15 °F 37 °F (2000)
Min Temperature -2 °F 5 °F -18 °F (2011)
Degree Days  
Heating Degree Days 54    
Moisture  
Dew Point 7 °F    
Average Humidity 84    
Maximum Humidity 93    
Minimum Humidity 73    
Precipitation  
Precipitation 0.00 in - - ()
Sea Level Pressure  
Sea Level Pressure 29.49 in    
Wind  
Wind Speed 10 mph (East)    
Max Wind Speed 24 mph    
Max Gust Speed 31 mph    
Visibility 7 miles    
Events      
Averages and records for this station are not official NWS values.
T = Trace of Precipitation, MM = Missing Value Source: NWS Daily Summary

Daily Weather History Graph

Daily Weather History Graph

Search for Another Location

Airport:

Trip Planner

Search our weather history database for the weather conditions in past years. The results will help you decide how hot, cold, wet, or windy it might be!

Date:

Astronomy

Feb. 12, 2013 Rise Set
Actual Time 9:54 AM AKST 6:30 PM AKST
Civil Twilight 9:05 AM AKST 7:20 PM AKST
Nautical Twilight 8:11 AM AKST 8:13 PM AKST
Astronomical Twilight 7:19 AM AKST 9:06 PM AKST
Moon 9:48 AM AKST (2/12) 11:06 PM AKST (2/12)
Length of Visible Light 10h 14m
Length of Day
8h 36m
Waxing Crescent, 8% of the Moon is Illuminated
Feb 12
Waxing Crescent
Feb 17
First Quarter
Feb 25
Full
Mar 4
Last Quarter
Mar 11
New

Hourly Weather History & Observations

Time (AKST) Temp. Windchill Dew Point Humidity Pressure Visibility Wind Dir Wind Speed Gust Speed Precip Events Conditions
12:16 AM 6.8 °F -3.5 °F 3.2 °F 85% 29.54 in 10.0 mi East 5.8 mph - N/A   Overcast
12:36 AM 6.8 °F -4.8 °F 3.2 °F 85% 29.55 in 10.0 mi East 6.9 mph - N/A   Overcast
12:56 AM 6.8 °F -3.5 °F 3.2 °F 85% 29.55 in 10.0 mi East 5.8 mph - N/A   Overcast
1:16 AM 6.8 °F -3.5 °F 3.2 °F 85% 29.55 in 10.0 mi ENE 5.8 mph - N/A   Overcast
1:36 AM 6.8 °F -2.0 °F 3.2 °F 85% 29.54 in 10.0 mi NE 4.6 mph - N/A   Overcast
1:56 AM 6.8 °F -3.5 °F 3.2 °F 85% 29.54 in 10.0 mi NE 5.8 mph - N/A   Overcast
2:36 AM 8.6 °F -4.7 °F 5.0 °F 85% 29.54 in 10.0 mi ENE 9.2 mph - N/A   Overcast
2:56 AM 10.4 °F -1.5 °F 5.0 °F 79% 29.54 in 9.0 mi NE 8.1 mph - N/A   Mostly Cloudy
3:16 AM 10.4 °F -2.4 °F 6.8 °F 85% 29.53 in 6.0 mi NNE 9.2 mph - N/A   Overcast
3:36 AM 10.4 °F -3.3 °F 6.8 °F 85% 29.52 in 6.0 mi NNE 10.4 mph - N/A   Overcast
3:56 AM 10.4 °F -4.1 °F 6.8 °F 85% 29.52 in 5.0 mi NNE 11.5 mph - N/A   Overcast
4:16 AM 12.2 °F -3.1 °F 8.6 °F 85% 29.51 in 3.0 mi NNE 13.8 mph - N/A   Overcast
4:36 AM 12.2 °F -3.1 °F 8.6 °F 85% 29.51 in 3.0 mi NNE 13.8 mph - N/A   Overcast
4:56 AM 12.2 °F -3.1 °F 8.6 °F 85% 29.51 in 2.5 mi NNE 13.8 mph - N/A   Overcast
5:16 AM 12.2 °F -2.5 °F 8.6 °F 85% 29.49 in 1.2 mi NNE 12.7 mph - N/A   Overcast
5:36 AM 12.2 °F -2.5 °F 10.4 °F 92% 29.50 in 1.2 mi NNE 12.7 mph - N/A   Overcast
5:56 AM 12.2 °F -1.8 °F 8.6 °F 85% 29.48 in 2.0 mi NNE 11.5 mph - N/A   Overcast
6:16 AM 12.2 °F -3.1 °F 8.6 °F 85% 29.48 in 1.8 mi NNE 13.8 mph - N/A   Overcast
6:36 AM 12.2 °F -2.5 °F 8.6 °F 85% 29.47 in 4.0 mi NNE 12.7 mph - N/A   Mostly Cloudy
6:56 AM 12.2 °F -2.5 °F 8.6 °F 85% 29.46 in 4.0 mi NNE 12.7 mph - N/A   Overcast
7:16 AM 12.2 °F -1.8 °F 8.6 °F 85% 29.45 in 10.0 mi NNE 11.5 mph - N/A   Overcast
7:36 AM 12.2 °F -2.5 °F 8.6 °F 85% 29.45 in 10.0 mi NNE 12.7 mph - N/A   Overcast
7:56 AM 12.2 °F -1.8 °F 8.6 °F 85% 29.44 in 10.0 mi NNE 11.5 mph - N/A   Overcast
8:16 AM 12.2 °F -1.8 °F 8.6 °F 85% 29.43 in 3.0 mi NNE 11.5 mph - N/A   Overcast
8:36 AM 12.2 °F -1.0 °F 10.4 °F 92% 29.43 in 1.2 mi NE 10.4 mph - N/A   Overcast
8:56 AM 14.0 °F 0.5 °F 10.4 °F 86% 29.43 in 2.0 mi NE 11.5 mph - N/A   Overcast
9:16 AM 15.8 °F 2.7 °F 10.4 °F 79% 29.42 in 2.5 mi NE 11.5 mph - N/A   Overcast
9:36 AM 15.8 °F 2.1 °F 10.4 °F 79% 29.42 in 10.0 mi NE 12.7 mph - N/A   Overcast
9:56 AM 15.8 °F 1.4 °F 12.2 °F 86% 29.41 in 2.0 mi NE 13.8 mph - N/A   Overcast
10:16 AM 15.8 °F 1.4 °F 12.2 °F 86% 29.41 in 3.0 mi NE 13.8 mph - N/A   Overcast
10:36 AM 17.6 °F 5.0 °F 14.0 °F 86% 29.40 in 3.0 mi ENE 11.5 mph - N/A   Overcast
10:56 AM 17.6 °F 5.0 °F 15.8 °F 93% 29.40 in 5.0 mi ENE 11.5 mph - N/A   Overcast
11:16 AM 17.6 °F 6.4 °F 15.8 °F 93% 29.40 in 7.0 mi ENE 9.2 mph - N/A   Overcast
11:36 AM 19.4 °F 8.6 °F 17.6 °F 93% 29.40 in 3.0 mi ESE 9.2 mph - N/A   Overcast
11:56 AM 21.2 °F 6.4 °F 19.4 °F 93% 29.40 in 3.0 mi SE 18.4 mph 31.1 mph N/A   Overcast
12:16 PM 23.0 °F 8.0 °F 19.4 °F 86% 29.39 in 3.0 mi SSE 20.7 mph 26.5 mph N/A   Overcast
12:36 PM 21.2 °F 4.5 °F 19.4 °F 93% 29.39 in 5.0 mi SSE 24.2 mph 28.8 mph N/A   Overcast
12:56 PM 21.2 °F 4.9 °F 17.6 °F 86% 29.41 in 5.0 mi South 23.0 mph - N/A   Overcast
1:16 PM 19.4 °F 3.6 °F 15.8 °F 86% 29.43 in 10.0 mi South 19.6 mph 28.8 mph N/A   Overcast
1:36 PM 17.6 °F 1.7 °F 12.2 °F 79% 29.44 in 10.0 mi South 18.4 mph 24.2 mph N/A   Overcast
1:56 PM 15.8 °F -0.2 °F 10.4 °F 79% 29.46 in 10.0 mi South 17.3 mph 24.2 mph N/A   Overcast
2:16 PM 12.2 °F -4.3 °F 8.6 °F 85% 29.47 in 8.0 mi South 16.1 mph - N/A   Scattered Clouds
2:36 PM 12.2 °F -3.7 °F 6.8 °F 79% 29.48 in 10.0 mi South 15.0 mph - N/A   Clear
2:56 PM 12.2 °F -3.7 °F 6.8 °F 79% 29.48 in 10.0 mi South 15.0 mph - N/A   Clear
3:16 PM 12.2 °F -3.7 °F 6.8 °F 79% 29.49 in 10.0 mi South 15.0 mph - N/A   Partly Cloudy
3:36 PM 10.4 °F -6.0 °F 6.8 °F 85% 29.50 in 10.0 mi South 15.0 mph - N/A   Mostly Cloudy
3:56 PM 10.4 °F -6.0 °F 6.8 °F 85% 29.50 in 10.0 mi South 15.0 mph - N/A   Overcast
4:16 PM 10.4 °F -6.0 °F 6.8 °F 85% 29.51 in 10.0 mi South 15.0 mph - N/A   Overcast
4:36 PM 12.2 °F -3.1 °F 6.8 °F 79% 29.51 in 10.0 mi South 13.8 mph - N/A   Overcast
4:56 PM 10.4 °F -4.8 °F 3.2 °F 73% 29.51 in 10.0 mi South 12.7 mph - N/A   Mostly Cloudy
5:16 PM 10.4 °F -5.4 °F 3.2 °F 73% 29.52 in 10.0 mi South 13.8 mph - N/A   Overcast
5:36 PM 8.6 °F -7.7 °F 3.2 °F 79% 29.52 in 10.0 mi SSE 13.8 mph - N/A   Scattered Clouds
5:56 PM 8.6 °F -7.7 °F 3.2 °F 79% 29.53 in 10.0 mi South 13.8 mph - N/A   Clear
6:16 PM 8.6 °F -7.0 °F 3.2 °F 79% 29.53 in 10.0 mi South 12.7 mph - N/A   Partly Cloudy
6:36 PM 6.8 °F -8.6 °F 1.4 °F 79% 29.54 in 10.0 mi South 11.5 mph - N/A   Partly Cloudy
6:56 PM 5.0 °F -10.0 °F 1.4 °F 85% 29.54 in 10.0 mi South 10.4 mph - N/A   Scattered Clouds
7:16 PM 3.2 °F -10.3 °F -0.4 °F 85% 29.54 in 10.0 mi South 8.1 mph - N/A   Partly Cloudy
7:36 PM 1.4 °F -12.5 °F -4.0 °F 78% 29.54 in 10.0 mi SSW 8.1 mph - N/A   Clear
7:56 PM 1.4 °F -12.5 °F -4.0 °F 78% 29.55 in 10.0 mi South 8.1 mph - N/A   Clear
8:16 PM -2.2 °F - -5.8 °F 85% 29.55 in 10.0 mi Calm Calm - N/A   Scattered Clouds
8:36 PM 1.4 °F - -0.4 °F 92% 29.55 in 10.0 mi Calm Calm - N/A   Overcast
8:56 PM 1.4 °F - -2.2 °F 85% 29.55 in 10.0 mi Calm Calm - N/A   Overcast
9:16 PM 1.4 °F - -0.4 °F 92% 29.55 in 10.0 mi Calm Calm - N/A   Overcast
9:36 PM 1.4 °F - -2.2 °F 85% 29.55 in 10.0 mi Calm Calm - N/A   Overcast
9:56 PM 1.4 °F - -2.2 °F 85% 29.55 in 10.0 mi Calm Calm - N/A   Overcast
10:16 PM 3.2 °F - -0.4 °F 85% 29.55 in 10.0 mi Calm Calm - N/A   Overcast
10:36 PM 3.2 °F - -0.4 °F 85% 29.55 in 2.5 mi Calm Calm - N/A   Overcast
10:56 PM 5.0 °F - 1.4 °F 85% 29.54 in 4.0 mi Calm Calm - N/A   Overcast
11:16 PM 6.8 °F - 3.2 °F 85% 29.54 in 1.2 mi Calm Calm - N/A   Overcast
11:36 PM 6.8 °F - 3.2 °F 85% 29.55 in 5.0 mi Calm Calm - N/A   Mostly Cloudy
11:56 PM 10.4 °F - 6.8 °F 85% 29.54 in 10.0 mi Calm Calm - N/A   Overcast